[[{"header":{"parameterUnit":"m.s-1","parameterCategory":1,"la1":30.2991,"la2":30.254,"lo1":-89.0895,"lo2":-89.0444,"dy":0.0017,"dx":0.0017,"nx":28,"ny":28,"refTime":"2023-10-29T09:00:00:Z","depth":0,"parameterNumber":2,"parameterNumberName":"U-component_of_WINDS"},"data":[0,0,0,0,0,0,0,0,0,0,0,0,0,0,0,0,0,0,0,0,0,0,0,0,0,0,0,0,0,0,0,0,0,0,0,0,0,0,0,0,0,0,0,0,0,0,0,0,0,0,0,0,0,0,0,0,0,0,-2.3692,-2.3692,0,-2.3708,-2.3708,-2.3709,-2.3637,-2.3634,-2.3632,-2.363,-2.3648,-2.3651,-2.3653,0,0,0,0,0,0,0,0,0,0,0,0,0,-2.3602,-2.3604,-2.3692,-2.3692,-2.3692,-2.3708,-2.3708,-2.3709,-2.3637,-2.3634,-2.3632,-2.3629,-2.3648,-2.365,-2.3653,0,0,0,0,0,0,0,0,0,0,0,0,0,-2.3632,-2.3604,-2.3692,-2.3658,-2.3656,-2.3708,-2.3708,-2.3709,-2.3637,-2.3634,-2.3631,-2.3628,-2.3647,-2.365,-2.3654,-2.374,0,0,-2.3665,-2.3667,0,0,0,0,0,0,0,0,-2.363,-2.3635,-2.3663,-2.3661,-2.3658,-2.3667,-2.3683,-2.3719,-2.3638,-2.3644,-2.363,-2.3627,-2.3657,-2.366,-2.367,-2.374,-2.3741,-2.3665,-2.3668,-2.3669,-2.367,0,0,0,0,0,0,0,-2.3628,-2.3634,-2.3698,-2.3664,-2.366,-2.3644,-2.3644,-2.369,-2.3668,-2.3644,-2.3638,-2.3641,-2.3655,-2.3667,-2.367,-2.3741,-2.3665,-2.3668,-2.3671,-2.3672,-2.3886,-2.3889,0,0,0,0,0,0,-2.363,-2.3633,-2.3698,-2.3699,-2.3636,-2.3648,-2.3649,-2.3667,-2.3668,-2.3665,-2.3644,-2.3638,-2.3662,-2.3666,-2.367,-2.3772,-2.3669,-2.3672,-2.3675,-2.3882,-2.3886,-2.389,0,0,0,0,0,0,-2.3628,-2.3637,-2.3697,-2.3664,-2.3671,-2.3653,-2.3674,-2.3669,-2.368,-2.3668,-2.3664,-2.3659,-2.3659,-2.3665,-2.3723,-2.3771,-2.3674,-2.3677,-2.3878,-2.3884,-2.3888,-2.3975,0,0,0,0,0,0,-2.3626,-2.3636,-2.3668,-2.3666,-2.3673,-2.3749,-2.3677,-2.3672,-2.3687,-2.3679,-2.3681,-2.3679,-2.3657,-2.3718,-2.3727,-2.3774,-2.368,-2.3874,-2.3881,-2.3887,-2.3967,-2.3982,-2.3995,0,0,0,0,0,-2.3623,-2.3691,-2.367,-2.3678,-2.3712,-2.3752,-2.3756,-2.373,-2.3691,-2.3723,-2.3716,-2.3678,-2.3765,-2.3725,-2.3734,-2.3783,-2.3871,-2.3879,-2.3886,-2.3961,-2.3979,-2.3995,0,0,0,0,0,0,-2.37,-2.369,-2.3666,-2.3736,-2.3745,-2.374,-2.3779,-2.375,-2.3771,-2.3763,-2.373,-2.3731,-2.3796,-2.3795,-2.3751,-2.3868,-2.3811,-2.3821,-2.3865,-2.3882,-2.3895,-2.3894,-2.3683,0,0,0,0,0,-2.3725,-2.3757,-2.3748,-2.381,-2.3816,-2.3798,-2.3814,-2.3793,-2.3802,-2.3806,-2.3802,-2.3813,-2.3842,-2.3862,-2.3889,-2.3968,-2.3968,-2.4006,-2.402,-2.4031,-2.404,-2.4084,-2.4101,-2.3916,-2.3916,-2.3916,0,0,-2.3776,-2.3775,-2.3798,-2.3826,-2.383,-2.3866,-2.3801,-2.3841,-2.3868,-2.3812,-2.3867,-2.3865,-2.3875,-2.3944,-2.3975,-2.3946,-2.4092,-2.4041,-2.4051,-2.4053,-2.4094,-2.4111,-2.4127,-2.3921,-2.392,-2.3919,0,0,-2.3889,-2.3891,-2.3944,-2.3951,-2.3959,-2.3947,-2.396,-2.3959,-2.3956,-2.4011,-2.397,-2.4002,-2.4053,-2.4062,-2.4073,-2.4193,-2.416,-2.4203,-2.4274,-2.4316,-2.4331,-2.4344,-2.4387,-2.4403,-2.4212,-2.4212,-2.4212,0,-2.3952,-2.4003,-2.3975,-2.4018,-2.4032,-2.3984,-2.4038,-2.4046,-2.4063,-2.4075,-2.4042,-2.4107,-2.411,-2.4182,-2.4211,-2.4222,-2.4237,-2.4201,-2.4331,-2.4344,-2.4355,-2.4396,-2.4412,-2.4217,-2.4216,-2.4216,-2.4215,0,-2.4081,-2.4118,-2.416,-2.4178,-2.4197,-2.4245,-2.4225,-2.4248,-2.4227,-2.4218,-2.4276,-2.4278,-2.4305,-2.4321,-2.43,-2.439,-2.4372,-2.4337,-2.4279,-2.4378,-2.4416,-2.4432,-2.4224,-2.4222,-2.4221,-2.422,0,0,-2.424,-2.4243,-2.4259,-2.4267,-2.4275,-2.4303,-2.4351,-2.4377,-2.4398,-2.4412,-2.4452,-2.4498,-2.4465,-2.4478,-2.4458,-2.4496,-2.4592,-2.4455,-2.4455,-2.4481,-2.4693,-2.472,-2.4738,-2.4571,-2.4574,-2.4576,-2.4692,0,-2.435,-2.443,-2.4408,-2.4488,-2.4523,-2.4479,-2.4521,-2.4531,-2.4525,-2.4554,-2.4547,-2.4581,-2.4535,-2.4543,-2.4578,-2.4573,-2.4634,-2.4564,-2.4608,-2.461,-2.4606,-2.4758,-2.4786,-2.4895,-2.4707,-2.4709,-2.4711,0,-2.4489,-2.4509,-2.4594,-2.4597,-2.4611,-2.4649,-2.4672,-2.47,-2.4711,-2.4705,-2.4721,-2.4694,-2.4743,-2.4686,-2.4753,-2.4706,-2.4723,-2.4723,-2.4727,-2.4729,-2.4666,-2.4764,-2.4929,-2.4946,-2.4734,-2.4732,-2.4731,0,-2.4597,-2.4646,-2.4703,-2.4711,-2.4716,-2.4744,-2.4748,-2.4756,-2.4774,-2.4795,-2.4807,-2.4834,-2.4848,-2.487,-2.4852,-2.4812,-2.4923,-2.4864,-2.4919,-2.492,-2.4943,-2.4942,-2.5113,-2.4955,-2.4955,-2.4954,-2.4954,0,-2.4722,-2.4776,-2.4751,-2.4786,-2.4846,-2.482,-2.488,-2.4879,-2.4887,-2.4922,-2.4886,-2.492,-2.4895,-2.4927,-2.4914,-2.4972,-2.4978,-2.4975,-2.4971,-2.4978,-2.4978,-2.4988,-2.498,-2.4959,-2.4958,-2.4957,-2.4956,0,-2.4852,-2.4837,-2.4897,-2.4898,-2.49,-2.4944,-2.4945,-2.4978,-2.4971,-2.5016,-2.5025,-2.5013,-2.505,-2.5034,-2.5073,-2.5064,-2.5139,-2.5124,-2.5135,-2.5131,-2.5187,-2.5182,-2.537,-2.5394,-2.5221,-2.5222,-2.5224,0,-2.4932,-2.4972,-2.4978,-2.4999,-2.5006,-2.504,-2.5058,-2.5036,-2.5057,-2.5074,-2.5106,-2.5139,-2.5164,-2.5225,-2.5221,-2.525,-2.5237,-2.5301,-2.5241,-2.5247,-2.5238,-2.5236,-2.524,-2.5312,-2.5314,-2.5316,-2.5317,0,-2.5077,-2.5068,-2.5096,-2.5123,-2.5146,-2.5166,-2.5182,-2.5202,-2.518,-2.5206,-2.5243,-2.5263,-2.5303,-2.5337,-2.5364,-2.5369,-2.534,-2.5336,-2.5351,-2.5358,-2.5363,-2.5361,-2.5167,-2.5332,-2.533,-2.5329,-2.5328,-2.5328,-2.5184,-2.5219,-2.5229,-2.5262,-2.5272,-2.5289,-2.5321,-2.5318,-2.5348,-2.5379,-2.5364,-2.5408,-2.542,-2.5453,-2.5463,-2.5497,-2.5472,-2.5493,-2.5498,-2.5503,-2.5511,-2.5358,-2.5502,-2.5501,-2.5501,-2.5501,-2.55,0,-2.5327,-2.5332,-2.5363,-2.5388,-2.5414,-2.5385,-2.5403,-2.5428,-2.5466,-2.548,-2.5506,-2.555,-2.5583,-2.5583,-2.5614,-2.5642,-2.563,-2.5651,-2.5649,-2.565,-2.5531,-2.5515,-2.5661,-2.5661,-2.5661,-2.5661,-2.566,-2.566,-2.5405,-2.5462,-2.5455,-2.5518,-2.5522,-2.5564,-2.5577,-2.5593,-2.5605,-2.5655,-2.5683,-2.5682,-2.5691,-2.5723,-2.5753,-2.5752,-2.5766,-2.5792,-2.5786,-2.5675,-2.5659,-2.5643,-2.5629,-2.5795,-2.5795,-2.5903,-2.5904,-2.5905]},{"header":{"parameterUnit":"m.s-1","parameterCategory":1,"la1":30.2991,"la2":30.254,"lo1":-89.0895,"lo2":-89.0444,"dy":0.0017,"dx":0.0017,"nx":28,"ny":28,"refTime":"2023-10-29T09:00:00:Z","depth":0,"parameterNumber":3,"parameterNumberName":"V-component_of_WINDS"},"data":[0,0,0,0,0,0,0,0,0,0,0,0,0,0,0,0,0,0,0,0,0,0,0,0,0,0,0,0,0,0,0,0,0,0,0,0,0,0,0,0,0,0,0,0,0,0,0,0,0,0,0,0,0,0,0,0,0,0,0.9974,0.9972,0,0.9788,0.9786,0.9784,0.967,0.9669,0.9668,0.9668,0.9484,0.948,0.9475,0,0,0,0,0,0,0,0,0,0,0,0,0,1.0242,1.0237,0.9975,0.9972,0.997,0.9789,0.9786,0.9784,0.967,0.9669,0.9668,0.9668,0.9485,0.948,0.9475,0,0,0,0,0,0,0,0,0,0,0,0,0,1.0098,1.0236,0.9975,0.9891,0.9882,0.9789,0.9786,0.9783,0.967,0.9669,0.9668,0.9667,0.9487,0.9481,0.9474,0.9453,0,0,0.9454,0.9452,0,0,0,0,0,0,0,0,1.0106,1.0088,0.9906,0.9897,0.9886,0.9751,0.9813,0.9672,0.967,0.9751,0.9668,0.9667,0.9574,0.956,0.9528,0.9444,0.9436,0.9454,0.945,0.9447,0.9445,0,0,0,0,0,0,0,1.0116,1.0096,0.9901,0.9903,0.9891,0.9866,0.9845,0.9786,0.967,0.9743,0.9735,0.9714,0.9569,0.9534,0.9522,0.9433,0.9454,0.9448,0.9444,0.9442,0.9328,0.9328,0,0,0,0,0,0,1.0138,1.0105,0.9907,0.9895,0.9996,0.9862,0.9838,0.9796,0.967,0.965,0.9715,0.9709,0.9546,0.953,0.9516,0.9483,0.9447,0.9441,0.9437,0.9327,0.9328,0.9329,0,0,0,0,0,0,1.0145,1.0122,0.9914,0.9998,0.9969,0.9858,0.9812,0.9792,0.9757,0.9648,0.9628,0.97,0.9544,0.9525,0.947,0.9475,0.9438,0.9432,0.9326,0.9327,0.9328,0.9418,0,0,0,0,0,0,1.0153,1.0125,1.0112,0.9998,0.9965,0.9869,0.9812,0.9789,0.9746,0.9737,0.9629,0.9611,0.9542,0.948,0.9463,0.9466,0.9427,0.9325,0.9326,0.9328,0.9414,0.9423,0.943,0,0,0,0,0,1.0163,1.0146,1.0112,1.0089,0.9947,0.9869,0.985,0.977,0.9747,0.9735,0.9666,0.9614,0.9478,0.9475,0.9455,0.9456,0.9324,0.9326,0.9328,0.9411,0.9421,0.9429,0,0,0,0,0,0,1.0264,1.0129,1.009,1.0035,0.9965,0.985,0.9832,0.9783,0.9718,0.9712,0.9618,0.9595,0.955,0.9498,0.9497,0.9431,0.9396,0.9394,0.9466,0.9474,0.9482,0.9495,0.9422,0,0,0,0,0,1.0281,1.0226,1.0111,1.0074,1.0041,0.9943,0.9906,0.9851,0.9774,0.9744,0.967,0.9601,0.9543,0.9506,0.9446,0.9408,0.9385,0.9399,0.9407,0.9414,0.9413,0.9392,0.9398,0.9335,0.9335,0.9335,0,0,1.0313,1.0232,1.0203,1.0093,1.0031,0.998,0.9918,0.9866,0.9827,0.9737,0.9679,0.9625,0.9541,0.9495,0.9471,0.945,0.9426,0.9416,0.9423,0.9417,0.9395,0.9401,0.9406,0.9336,0.9336,0.9336,0,0,1.0345,1.0278,1.024,1.0181,1.0088,1.0024,1.0017,0.991,0.9869,0.9811,0.9742,0.9698,0.9599,0.9543,0.9502,0.952,0.9471,0.9504,0.9543,0.9524,0.9529,0.9533,0.9541,0.9544,0.9504,0.9504,0.9504,0,1.0397,1.0313,1.0228,1.0179,1.0135,1.005,1.0014,0.9961,0.9856,0.9828,0.9807,0.9683,0.9621,0.9562,0.9567,0.9536,0.9526,0.9514,0.9535,0.9538,0.954,0.9547,0.955,0.9508,0.9508,0.9507,0.9507,0,1.0383,1.0327,1.0309,1.0207,1.0161,1.0119,1.0031,0.9995,0.9946,0.9887,0.9831,0.9754,0.9679,0.9661,0.9613,0.9597,0.9587,0.9552,0.9514,0.9552,0.9557,0.9558,0.9515,0.9513,0.9512,0.9511,0,0,1.0469,1.0324,1.0319,1.0273,1.0168,1.0125,1.0083,1.0007,0.998,0.9912,0.9875,0.9796,0.9764,0.9718,0.9663,0.9647,0.9669,0.9613,0.961,0.9626,0.965,0.9676,0.968,0.9637,0.9637,0.9637,0.9657,0,1.0485,1.04,1.0325,1.0268,1.0218,1.0141,1.0104,1.0038,0.9983,0.9935,0.9875,0.9821,0.9781,0.9753,0.9734,0.967,0.9672,0.9668,0.9604,0.9603,0.9625,0.9682,0.9709,0.9731,0.9658,0.9658,0.9658,0,1.0491,1.0425,1.0364,1.0267,1.0243,1.0211,1.0139,1.0093,1.0019,0.9981,0.9932,0.9875,0.9831,0.9801,0.974,0.9739,0.971,0.9676,0.9675,0.9664,0.9631,0.9673,0.9735,0.9739,0.966,0.966,0.966,0,1.0561,1.0458,1.0408,1.0372,1.0258,1.0238,1.019,1.0115,1.0076,1.0015,0.999,0.9925,0.989,0.9843,0.9773,0.9757,0.9721,0.9684,0.969,0.9692,0.9683,0.9684,0.9741,0.9667,0.9667,0.9667,0.9667,0,1.0585,1.0551,1.0438,1.0407,1.0368,1.0285,1.025,1.0196,1.0132,1.0092,1.0024,0.9989,0.9898,0.9854,0.98,0.976,0.9745,0.9714,0.97,0.9719,0.9723,0.9697,0.9693,0.9667,0.9667,0.9667,0.9667,0,1.0654,1.0577,1.0518,1.0416,1.039,1.0366,1.0281,1.0251,1.0194,1.0146,1.013,1.0041,0.9986,0.9912,0.9835,0.9799,0.9766,0.9744,0.979,0.9781,0.9791,0.9791,0.9832,0.9834,0.976,0.9761,0.9762,0,1.0674,1.0646,1.0542,1.051,1.0464,1.0413,1.0373,1.0294,1.0256,1.0173,1.0154,1.0094,1.004,0.9958,0.9889,0.983,0.9806,0.9825,0.9797,0.9818,0.9807,0.9809,0.9806,0.9831,0.9832,0.9833,0.9834,0,1.0718,1.0682,1.0626,1.0559,1.0514,1.0457,1.0398,1.0376,1.0285,1.0248,1.019,1.0149,1.0071,1.0013,0.9947,0.9902,0.9854,0.9844,0.9842,0.9861,0.9889,0.9874,0.9807,0.9842,0.9842,0.9841,0.9841,0.984,1.0762,1.0735,1.0658,1.06,1.0547,1.0495,1.0462,1.0402,1.0352,1.028,1.0238,1.0183,1.0115,1.0021,0.9979,0.9938,0.9918,0.9915,0.9914,0.9915,0.9922,0.9897,0.9925,0.9925,0.9925,0.9924,0.9924,0,1.0803,1.0751,1.0698,1.0617,1.0573,1.0532,1.0466,1.0432,1.0383,1.0324,1.0274,1.021,1.0156,1.0084,1.0025,1.0006,0.9983,0.9994,0.9993,0.9985,0.9942,0.9949,1.0013,1.0013,1.0013,1.0013,1.0013,1.0013,1.0818,1.077,1.0727,1.0654,1.0603,1.0547,1.0513,1.0466,1.0418,1.0349,1.0303,1.0256,1.0193,1.013,1.008,1.0061,1.0043,1.006,1.0034,0.9995,0.9987,0.9979,0.9986,1.0056,1.0057,1.008,1.008,1.008]}]]